Tracking 29069 objects as of 18-Jul-2024
HD Live streaming from Space Station
objects crossing your sky now

DELTA 1 DEB

Track DELTA 1 DEB now!
10-day predictions


NORAD ID: 9976
Int'l Code: 1973-086GF
Perigee: 1,497.9 km
Apogee: 1,569.7 km
Inclination: 102.4 °
Period: 116.6 minutes
Semi major axis: 7904 km
RCS: 0.0352 m2 (small)
Launch date: November 6, 1973
Source: United States (US)
Launch site: AIR FORCE WESTERN TEST RANGE (AFWTR)

Note: This is SATELLITE DEBRIS
Your satellite tracking list
Your tracking list is empty




NASA's NSSDC Master Catalog

Two Line Element Set (TLE):
1 09976U 73086GF  24188.23765373  .00000058  00000-0  82676-3 0  9999
2 09976 102.3879 194.0737 0045391  81.2652 343.5629 12.35278507208451
Source of the keplerian elements: AFSPC